GW1987 Weather Reports


Display with metric or nautical units.
time (UTC)temp
F
wind
direction
speed
MPH
gust
MPH
rain 1hr
in
rain 24hr
in
rain mn
in
humidity
%
barometer
mb
20260902155521 69 360 2.0 3.0 0.00 0.00 0.00 36 918.1
20260902155019 69 360 1.0 3.0 0.00 0.00 0.00 35 918.4
20260902154558 69 360 1.0 3.0 0.00 0.00 0.00 35 918.1
20260902154019 69 360 1.0 3.0 0.00 0.00 0.00 36 918.2
20260902153521 68 360 1.0 3.0 0.00 0.00 0.00 37 918.3
20260902153049 67 360 0.0 3.0 0.00 0.00 0.00 38 918.3
20260902152521 66 360 1.0 2.0 0.00 0.00 0.00 40 918.4
20260902152020 64 360 0.0 2.0 0.00 0.00 0.00 42 918.3
20260902151547 63 360 0.0 2.0 0.00 0.00 0.00 43 918.4
20260902151017 63 360 0.0 2.0 0.00 0.00 0.00 43 918.4
20260902150521 62 360 0.0 2.0 0.00 0.00 0.00 44 918.7
20260902150058 62 360 1.0 2.0 0.00 0.00 0.00 47 918.7
20260902145518 61 360 0.0 2.0 0.00 0.00 0.00 47 918.8
20260902145021 60 360 0.0 1.0 0.00 0.00 0.00 49 918.8
20260902144602 59 360 0.0 1.0 0.00 0.00 0.00 51 918.9
20260902144018 58 360 0.0 1.0 0.00 0.00 0.00 52 918.8
20260902143520 57 360 0.0 2.0 0.00 0.00 0.00 54 918.9
20260902143103 57 360 0.0 2.0 0.00 0.00 0.00 52 918.9
20260902142519 58 360 1.0 2.0 0.00 0.00 0.00 53 918.9
20260902142019 58 360 0.0 1.0 0.00 0.00 0.00 52 918.9
20260902141600 58 360 0.0 6.0 0.00 0.00 0.00 52 918.8
20260902141018 58 360 0.0 6.0 0.00 0.00 0.00 52 918.7
20260902140517 57 360 2.0 4.0 0.00 0.00 0.00 51 918.5
20260902140106 57 360 2.0 6.0 0.00 0.00 0.00 54 918.5
20260902135516 56 360 4.0 8.0 0.00 0.00 0.00 55 918.6
20260902135020 56 360 5.0 8.0 0.00 0.00 0.00 55 918.8
20260902134552 55 360 5.0 8.0 0.00 0.00 0.00 56 918.7
20260902134016 55 360 4.0 6.0 0.00 0.00 0.00 58 918.9
20260902133524 55 360 3.0 4.0 0.00 0.00 0.00 56 918.9
20260902133045 55 360 0.0 3.0 0.00 0.00 0.00 55 918.7
20260902132520 55 360 1.0 4.0 0.00 0.00 0.00 55 918.7
20260902132019 54 360 2.0 4.0 0.00 0.00 0.00 56 918.8
20260902131611 54 360 1.0 4.0 0.00 0.00 0.00 57 919.0
20260902131019 54 360 2.0 4.0 0.00 0.00 0.00 55 918.9
20260902130519 54 360 3.0 4.0 0.00 0.00 0.00 56 918.9
20260902130059 54 360 1.0 3.0 0.00 0.00 0.00 56 918.9
20260902125518 54 360 2.0 4.0 0.00 0.00 0.00 56 918.7
20260902125017 54 360 2.0 4.0 0.00 0.00 0.00 55 918.8
20260902124549 54 360 2.0 3.0 0.00 0.00 0.00 56 918.8
20260902124018 54 360 1.0 4.0 0.00 0.00 0.00 56 918.7
20260902123517 55 360 0.0 4.0 0.00 0.00 0.00 55 918.6
20260902123058 55 360 2.0 5.0 0.00 0.00 0.00 54 918.7
20260902122521 56 360 2.0 4.0 0.00 0.00 0.00 54 918.7
20260902122020 56 360 2.0 4.0 0.00 0.00 0.00 53 918.9
20260902121557 57 360 1.0 4.0 0.00 0.00 0.00 51 918.8
20260902121021 57 360 1.0 3.0 0.00 0.00 0.00 51 918.9
20260902120521 58 360 1.0 3.0 0.00 0.00 0.00 49 919.0
20260902120107 58 360 0.0 2.0 0.00 0.00 0.00 48 919.1
20260902115518 58 360 0.0 4.0 0.00 0.00 0.00 49 919.1
20260902115017 57 360 0.0 9.0 0.00 0.00 0.00 50 919.1
20260902114611 58 360 5.0 9.0 0.00 0.00 0.00 51 919.2
20260902114018 58 360 0.0 3.0 0.00 0.00 0.00 48 919.0
20260902113517 58 360 0.0 3.0 0.00 0.00 0.00 49 919.1
20260902113047 58 360 0.0 3.0 0.00 0.00 0.00 48 919.2
20260902112521 58 360 0.0 4.0 0.00 0.00 0.00 48 919.2
20260902112022 57 360 2.0 5.0 0.00 0.00 0.00 50 919.3
20260902111556 56 360 3.0 5.0 0.00 0.00 0.00 53 919.4
20260902111017 56 360 1.0 5.0 0.00 0.00 0.00 54 919.5
20260902110517 56 360 2.0 5.0 0.00 0.00 0.00 55 919.5
20260902105516 56 360 1.0 6.0 0.00 0.00 0.00 55 919.4
20260902105022 56 360 4.0 6.0 0.00 0.00 0.00 55 919.4
20260902104606 55 360 1.0 4.0 0.00 0.00 0.00 55 919.3
20260902104017 56 360 2.0 3.0 0.00 0.00 0.00 54 919.4
20260902103520 57 360 2.0 3.0 0.00 0.00 0.00 51 919.3
20260902103106 57 360 1.0 3.0 0.00 0.00 0.00 50 919.4
20260902102517 56 360 1.0 4.0 0.00 0.00 0.00 51 919.2
20260902102019 57 360 2.0 4.0 0.00 0.00 0.00 49 919.4
20260902101553 57 360 2.0 4.0 0.00 0.00 0.00 48 919.5
20260902101018 57 360 2.0 5.0 0.00 0.00 0.00 49 919.2
20260902100518 55 360 4.0 5.0 0.00 0.00 0.00 51 919.4
20260902100101 55 360 2.0 4.0 0.00 0.00 0.00 51 919.4
20260902095517 56 360 3.0 4.0 0.00 0.00 0.00 50 919.5
20260902095019 57 360 0.0 4.0 0.00 0.00 0.00 48 919.3
20260902094551 57 360 2.0 4.0 0.00 0.00 0.00 48 919.2
20260902094026 56 360 0.0 3.0 0.00 0.00 0.00 49 919.3
20260902093518 55 360 1.0 3.0 0.00 0.00 0.00 50 919.4
20260902093057 55 360 0.0 3.0 0.00 0.00 0.00 50 919.3
20260902092517 56 360 1.0 5.0 0.00 0.00 0.00 49 919.2
20260902092016 56 360 3.0 5.0 0.00 0.00 0.00 49 919.2
20260902092012 56 360 3.0 4.0 0.00 0.00 0.00 48 919.3
20260902091219 57 360 2.0 5.0 0.00 0.00 0.00 47 919.1
20260902090719 57 360 3.0 5.0 0.00 0.00 0.00 47 919.1
20260902090036 58 360 3.0 5.0 0.00 0.00 0.00 46 919.1
20260902085515 58 360 3.0 6.0 0.00 0.00 0.00 45 919.4
20260902085017 59 360 4.0 6.0 0.00 0.00 0.00 44 919.4
20260902084533 58 360 4.0 6.0 0.00 0.00 0.00 45 919.5
20260902084016 57 360 4.0 5.0 0.00 0.00 0.00 46 919.6
20260902083517 57 360 3.0 4.0 0.00 0.00 0.00 46 919.7
20260902083036 56 360 2.0 3.0 0.00 0.00 0.00 47 919.6
20260902082518 55 360 0.0 3.0 0.00 0.00 0.00 48 919.5
20260902082018 54 360 2.0 3.0 0.00 0.00 0.00 51 919.5
20260902081542 53 360 0.0 1.0 0.00 0.00 0.00 52 919.4
20260902081016 53 360 0.0 2.0 0.00 0.00 0.00 54 919.5
20260902080518 53 360 1.0 2.0 0.00 0.00 0.00 53 919.5
20260902080046 54 360 1.0 3.0 0.00 0.00 0.00 52 919.7
20260902075518 55 360 1.0 3.0 0.00 0.00 0.00 49 919.8
20260902075015 55 360 2.0 4.0 0.00 0.00 0.00 49 919.6
20260902074536 55 360 2.0 4.0 0.00 0.00 0.00 49 919.8
20260902074018 54 360 1.0 4.0 0.00 0.00 0.00 49 919.7
20260902073517 55 360 1.0 4.0 0.00 0.00 0.00 49 919.6
20260902073034 55 360 2.0 5.0 0.00 0.00 0.00 48 919.7
20260902072517 55 360 0.0 5.0 0.00 0.00 0.00 48 919.5
20260902072017 55 360 2.0 3.0 0.00 0.00 0.00 48 919.5
20260902071538 55 360 2.0 3.0 0.00 0.00 0.00 48 919.7
20260902071018 56 360 1.0 4.0 0.00 0.00 0.00 47 919.8
20260902070517 56 360 1.0 4.0 0.00 0.00 0.00 46 919.7
20260902070038 55 360 2.0 3.0 0.00 0.00 0.00 48 919.8
20260902065516 55 360 1.0 4.0 0.00 0.00 0.00 48 919.7
20260902065017 56 360 2.0 5.0 0.00 0.00 0.00 46 920.0
20260902064534 58 360 1.0 5.0 0.00 0.00 0.00 43 920.0
20260902064016 59 360 3.0 5.0 0.00 0.00 0.00 42 920.2
20260902063522 59 360 3.0 6.0 0.00 0.00 0.00 41 920.0
20260902063036 60 360 4.0 6.0 0.00 0.00 0.00 40 920.2
20260902062518 60 360 2.0 8.0 0.00 0.00 0.00 39 920.2
20260902062016 60 360 5.0 8.0 0.00 0.00 0.00 39 920.3
20260902061539 59 360 3.0 8.0 0.00 0.00 0.00 41 920.1
20260902061028 58 360 5.0 9.0 0.00 0.00 0.00 43 920.0
20260902060515 59 360 6.0 9.0 0.00 0.00 0.00 42 920.0
20260902060035 59 360 2.0 3.0 0.00 0.00 0.00 41 920.0
20260902055518 59 360 1.0 4.0 0.00 0.00 0.00 42 919.8
20260902055019 59 360 2.0 4.0 0.00 0.00 0.00 42 919.7
20260902054535 59 360 3.0 5.0 0.00 0.00 0.00 42 919.8
20260902054018 59 360 2.0 4.0 0.00 0.00 0.00 42 919.7
20260902053516 60 360 0.0 5.0 0.00 0.00 0.00 41 919.8
20260902053041 60 360 3.0 5.0 0.00 0.00 0.00 41 919.9
20260902052518 61 360 3.0 5.0 0.00 0.00 0.00 40 919.9
20260902052017 61 360 4.0 9.0 0.00 0.00 0.00 40 919.9
20260902051539 61 360 5.0 9.0 0.00 0.00 0.00 39 919.7
20260902051017 61 360 6.0 10.0 0.00 0.00 0.00 39 919.7
20260902050520 62 360 7.0 11.0 0.00 0.00 0.00 38 919.7
20260902050041 63 360 9.0 11.0 0.00 0.00 0.00 36 919.7
20260902045517 63 360 10.0 11.0 0.00 0.00 0.00 36 919.7
20260902045016 63 360 8.0 11.0 0.00 0.00 0.00 36 919.6
20260902044540 63 360 8.0 9.0 0.00 0.00 0.00 36 919.7
20260902044016 63 360 6.0 11.0 0.00 0.00 0.00 36 919.7
20260902043517 64 360 8.0 11.0 0.00 0.00 0.00 35 919.8
20260902043045 65 360 9.0 11.0 0.00 0.00 0.00 34 919.9
20260902042517 65 360 10.0 11.0 0.00 0.00 0.00 33 919.7
20260902042019 65 360 9.0 12.0 0.00 0.00 0.00 33 919.7
20260902041556 64 360 10.0 12.0 0.00 0.00 0.00 35 919.6
20260902041016 62 360 8.0 10.0 0.00 0.00 0.00 38 919.7
20260902040518 62 360 7.0 9.0 0.00 0.00 0.00 39 919.8
20260902040039 61 360 6.0 8.0 0.00 0.00 0.00 39 919.7
20260902035517 61 360 6.0 8.0 0.00 0.00 0.00 39 919.7
20260902035017 61 360 6.0 8.0 0.00 0.00 0.00 38 919.8
20260902034544 61 360 5.0 6.0 0.00 0.00 0.00 38 920.0
20260902034016 62 360 5.0 6.0 0.00 0.00 0.00 37 920.1
20260902033517 63 360 5.0 6.0 0.00 0.00 0.00 35 920.0
20260902033048 65 360 4.0 8.0 0.00 0.00 0.00 33 920.1
20260902032520 67 360 5.0 9.0 0.00 0.00 0.00 30 920.2
20260902032023 68 360 7.0 11.0 0.00 0.00 0.00 29 919.8
20260902031542 68 360 9.0 11.0 0.00 0.00 0.00 28 920.1
20260902031017 68 360 9.0 11.0 0.00 0.00 0.00 29 920.0
20260902030516 68 360 7.0 11.0 0.00 0.00 0.00 28 919.9
20260902030046 70 360 9.0 11.0 0.00 0.00 0.00 27 920.0
20260902025521 70 360 9.0 12.0 0.00 0.00 0.00 27 919.9
20260902025018 69 360 10.0 12.0 0.00 0.00 0.00 28 919.9
20260902024541 67 360 7.0 10.0 0.00 0.00 0.00 30 920.0
20260902024017 67 360 6.0 9.0 0.00 0.00 0.00 31 920.1
20260902023516 66 360 7.0 9.0 0.00 0.00 0.00 32 920.0
20260902023045 64 360 7.0 9.0 0.00 0.00 0.00 34 919.9
20260902022519 64 360 5.0 6.0 0.00 0.00 0.00 34 919.9
20260902022019 64 360 4.0 6.0 0.00 0.00 0.00 34 919.8
20260902021548 64 360 4.0 6.0 0.00 0.00 0.00 33 919.8
20260902021019 65 360 5.0 6.0 0.00 0.00 0.00 32 919.7
20260902020518 66 360 5.0 6.0 0.00 0.00 0.00 31 919.7
20260902020038 66 360 5.0 6.0 0.00 0.00 0.00 30 919.7
20260902015517 66 360 4.0 5.0 0.00 0.00 0.00 30 920.0
20260902015015 67 360 4.0 6.0 0.00 0.00 0.00 28 920.0
20260902014546 68 360 4.0 5.0 0.00 0.00 0.00 27 920.0
20260902014018 69 360 3.0 5.0 0.00 0.00 0.00 26 919.9
20260902013520 70 360 4.0 5.0 0.00 0.00 0.00 25 919.9
20260902013044 72 360 4.0 5.0 0.00 0.00 0.00 23 920.2
20260902012519 73 360 4.0 6.0 0.00 0.00 0.00 21 920.0
20260902012017 75 360 4.0 8.0 0.00 0.00 0.00 18 920.1
20260902011536 76 360 5.0 8.0 0.00 0.00 0.00 16 920.1
20260902011016 77 360 5.0 8.0 0.00 0.00 0.00 15 920.2
20260902010516 79 360 6.0 8.0 0.00 0.00 0.00 14 920.3
20260902010039 80 360 6.0 10.0 0.00 0.00 0.00 12 920.2
20260902005517 81 360 7.0 11.0 0.00 0.00 0.00 12 920.1
20260902005017 82 360 8.0 11.0 0.00 0.00 0.00 11 920.2
20260902004543 82 360 6.0 9.0 0.00 0.00 0.00 11 920.3
20260902004015 82 360 3.0 6.0 0.00 0.00 0.00 10 920.4
20260902003517 82 360 4.0 6.0 0.00 0.00 0.00 9 920.5
20260902003049 83 360 3.0 5.0 0.00 0.00 0.00 9 920.4
20260902002519 83 360 0.0 6.0 0.00 0.00 0.00 9 920.3
20260902002022 83 360 3.0 6.0 0.00 0.00 0.00 10 920.4
20260902001542 83 360 2.0 5.0 0.00 0.00 0.00 10 920.3
20260902001017 83 360 1.0 8.0 0.00 0.00 0.00 10 920.3
20260902000516 83 360 3.0 9.0 0.00 0.00 0.00 9 920.4
20260902000056 84 360 5.0 9.0 0.00 0.00 0.00 9 920.4
20260901235516 84 360 4.0 9.0 0.00 0.00 0.00 9 920.5
20260901235017 83 360 0.0 4.0 0.00 0.00 0.00 10 920.5
20260901234540 83 360 2.0 8.0 0.00 0.00 0.00 10 920.5
20260901234021 83 360 4.0 10.0 0.00 0.00 0.00 10 920.6
20260901233518 83 360 6.0 11.0 0.00 0.00 0.00 10 920.5
20260901233044 84 360 9.0 11.0 0.00 0.00 0.00 10 920.5
20260901232517 84 360 4.0 12.0 0.00 0.00 0.00 10 920.5
20260901232018 83 360 6.0 12.0 0.00 0.00 0.00 10 920.6
20260901231549 83 360 4.0 14.0 0.00 0.00 0.00 10 920.7
20260901231016 83 360 8.0 14.0 0.00 0.00 0.00 10 920.7
20260901230517 83 360 3.0 14.0 0.00 0.00 0.00 10 920.7
20260901230041 83 360 11.0 14.0 0.00 0.00 0.00 10 920.7
20260901225518 83 360 8.0 14.0 0.00 0.00 0.00 10 920.9
20260901225019 83 360 10.0 14.0 0.00 0.00 0.00 11 920.9
20260901224542 83 360 5.0 12.0 0.00 0.00 0.00 10 920.8
20260901224021 83 360 7.0 14.0 0.00 0.00 0.00 11 920.9
20260901223518 83 360 6.0 15.0 0.00 0.00 0.00 12 920.9
20260901223043 83 360 8.0 15.0 0.00 0.00 0.00 11 921.0
20260901222518 83 360 9.0 14.0 0.00 0.00 0.00 11 921.0
20260901222018 83 360 7.0 12.0 0.00 0.00 0.00 9 921.1
20260901221539 82 360 6.0 13.0 0.00 0.00 0.00 11 921.3
20260901221018 82 360 5.0 13.0 0.00 0.00 0.00 12 921.4
20260901220516 82 360 10.0 15.0 0.00 0.00 0.00 12 921.5
20260901220110 82 360 9.0 15.0 0.00 0.00 0.00 12 921.4
20260901215517 82 360 8.0 13.0 0.00 0.00 0.00 14 921.5
20260901215019 82 360 10.0 15.0 0.00 0.00 0.00 13 921.5
20260901214545 81 360 12.0 15.0 0.00 0.00 0.00 14 921.6
20260901214019 81 360 9.0 14.0 0.00 0.00 0.00 14 921.6
20260901213518 81 360 11.0 15.0 0.00 0.00 0.00 15 921.8
20260901213108 81 360 13.0 16.0 0.00 0.00 0.00 16 921.7
20260901212518 80 360 9.0 16.0 0.00 0.00 0.00 16 921.9
20260901212019 80 360 9.0 16.0 0.00 0.00 0.00 17 922.0
20260901211539 80 360 10.0 14.0 0.00 0.00 0.00 17 921.9
20260901211021 79 360 10.0 15.0 0.00 0.00 0.00 17 922.0
20260901210517 79 360 11.0 15.0 0.00 0.00 0.00 18 922.0
20260901210058 80 360 11.0 15.0 0.00 0.00 0.00 18 922.1
20260901205521 79 360 10.0 15.0 0.00 0.00 0.00 19 922.2
20260901205019 79 360 10.0 13.0 0.00 0.00 0.00 20 922.4
20260901204544 79 360 9.0 14.0 0.00 0.00 0.00 20 922.3
20260901204018 78 360 9.0 14.0 0.00 0.00 0.00 20 922.4
20260901203519 78 360 7.0 14.0 0.00 0.00 0.00 20 922.5
20260901203102 77 360 8.0 14.0 0.00 0.00 0.00 21 922.5
20260901202515 77 360 8.0 14.0 0.00 0.00 0.00 21 922.8
20260901202022 77 360 8.0 14.0 0.00 0.00 0.00 21 922.8
20260901201547 77 360 9.0 14.0 0.00 0.00 0.00 21 922.9
20260901201022 77 360 8.0 15.0 0.00 0.00 0.00 22 922.8
20260901200523 76 360 8.0 16.0 0.00 0.00 0.00 21 922.8
20260901200046 77 360 9.0 16.0 0.00 0.00 0.00 22 922.8
20260901195519 77 360 8.0 13.0 0.00 0.00 0.00 22 922.9
20260901195017 76 360 6.0 15.0 0.00 0.00 0.00 23 922.9
20260901194549 75 360 9.0 16.0 0.00 0.00 0.00 22 922.8
20260901194019 75 360 8.0 16.0 0.00 0.00 0.00 22 922.9
20260901193517 75 360 10.0 15.0 0.00 0.00 0.00 22 922.9
20260901193052 75 360 10.0 16.0 0.00 0.00 0.00 23 923.1
20260901192518 75 360 10.0 16.0 0.00 0.00 0.00 23 923.3
20260901192017 74 360 10.0 16.0 0.00 0.00 0.00 25 923.2
20260901191549 74 360 9.0 15.0 0.00 0.00 0.00 26 923.1
20260901191018 73 360 11.0 15.0 0.00 0.00 0.00 27 923.1
20260901190519 73 360 9.0 14.0 0.00 0.00 0.00 27 923.3
20260901190051 73 360 8.0 14.0 0.00 0.00 0.00 27 923.3
20260901185521 73 360 7.0 13.0 0.00 0.00 0.00 28 923.4
20260901185017 72 360 9.0 12.0 0.00 0.00 0.00 28 923.4
20260901184547 71 360 7.0 14.0 0.00 0.00 0.00 28 923.5
20260901184019 71 360 7.0 14.0 0.00 0.00 0.00 29 923.6
20260901183517 70 360 8.0 13.0 0.00 0.00 0.00 30 923.4
20260901183057 70 360 8.0 13.0 0.00 0.00 0.00 31 923.4
20260901182518 69 360 10.0 13.0 0.00 0.00 0.00 32 923.6
20260901182016 69 360 7.0 13.0 0.00 0.00 0.00 33 923.6
20260901181551 68 360 8.0 13.0 0.00 0.00 0.00 33 923.8
20260901181020 68 360 9.0 11.0 0.00 0.00 0.00 33 923.8
20260901180523 68 360 9.0 11.0 0.00 0.00 0.00 34 923.6
20260901180104 68 360 8.0 11.0 0.00 0.00 0.00 33 923.8
20260901175521 68 360 6.0 11.0 0.00 0.00 0.00 33 923.7
20260901175018 68 360 5.0 10.0 0.00 0.00 0.00 33 923.9
20260901174555 68 360 5.0 12.0 0.00 0.00 0.00 33 923.9
20260901174018 67 360 6.0 12.0 0.00 0.00 0.00 34 924.1
20260901173522 67 360 6.0 10.0 0.00 0.00 0.00 33 924.0
20260901173053 67 360 7.0 12.0 0.00 0.00 0.00 35 923.9
20260901172517 66 360 9.0 12.0 0.00 0.00 0.00 35 924.0
20260901172019 66 360 7.0 12.0 0.00 0.00 0.00 34 924.0
20260901171557 66 360 9.0 11.0 0.00 0.00 0.00 35 923.9
20260901171021 66 360 5.0 11.0 0.00 0.00 0.00 34 924.2
20260901170518 66 360 1.0 11.0 0.00 0.00 0.00 37 924.3
20260901170101 66 360 5.0 11.0 0.00 0.00 0.00 36 924.5
20260901165517 66 360 4.0 10.0 0.00 0.00 0.00 37 924.2
20260901165020 65 360 3.0 9.0 0.00 0.00 0.00 38 924.3
20260901164544 64 360 5.0 9.0 0.00 0.00 0.00 37 924.4
20260901164020 64 360 5.0 8.0 0.00 0.00 0.00 39 924.0
20260901163517 63 360 3.0 6.0 0.00 0.00 0.00 41 924.1
20260901163053 62 360 2.0 4.0 0.00 0.00 0.00 42 924.4
20260901162518 62 360 2.0 4.0 0.00 0.00 0.00 43 924.3
20260901162016 61 360 2.0 4.0 0.00 0.00 0.00 43 924.1
20260901161552 61 360 2.0 4.0 0.00 0.00 0.00 45 924.3
20260901161016 60 360 0.0 4.0 0.00 0.00 0.00 47 924.5
20260901160519 59 360 1.0 4.0 0.00 0.00 0.00 47 924.2
20260901160051 58 360 0.0 4.0 0.00 0.00 0.00 47 924.1